Temperature
16 16 16 16 16 16 17 17 17 17 17 17 17 17 17 17 17 17 17 17 16 16 16 16 15 15 15 15 15 15 15 15 15 15 15 15 15 15 15 15 15 15 14
16 16 16 16 16 16 17 17 17 17 17 17 17 17 17 17 17 17 16 16 16 16 16 15 15 15 15 15 15 15 15 15 15 15 15 15 15 15 15 15 15 15 14
16 16 16 16 16 16 16 16 16 17 17 17 17 17 17 17 16 16 16 16 16 16 16 16 15 15 15 15 15 15 15 15 15 15 15 15 15 15 15 15 14 14 14
16 16 16 16 16 16 16 16 16 16 16 17 17 17 17 16 16 16 16 16 16 16 16 16 15 15 15 15 15 15 15 15 15 15 15 15 14 14 14 14 14 14 14
16 16 16 16 16 16 16 16 16 16 16 16 16 16 16 16 16 16 16 16 16 16 15 15 15 15 15 15 15 15 15 15 15 15 15 14 14 14 14 14 14 14 14
15 16 16 16 16 16 16 16 16 16 16 16 16 16 16 16 16 16 16 16 16 15 15 15 15 15 15 15 15 14 14 14 14 14 14 14 14 14 14 14 14 14 14
15 15 15 16 16 16 16 16 16 16 16 16 16 16 16 16 16 16 16 16 16 15 15 15 15 15 15 15 15 14 14 14 14 14 14 14 14 14 14 14 14 14 14
15 15 15 15 15 15 15 15 15 16 16 16 16 16 16 15 15 15 15 15 15 15 15 15 15 15 15 15 15 14 14 14 14 14 14 14 14 14 14 14 14 14 14
15 15 15 15 15 15 15 15 15 15 15 15 15 15 15 15 15 15 15 15 15 15 15 15 15 15 15 15 14 14 14 14 14 14 14 14 14 14 14 14 14 14 14
14 14 15 15 15 15 15 15 15 15 15 15 15 15 15 15 15 15 15 15 15 15 15 15 15 15 15 14 14 14 14 14 14 14 14 14 14 14 14 14 14 14 14
14 14 14 14 14 15 15 15 15 15 15 15 15 15 15 15 15 15 15 15 15 15 15 15 15 15 14 14 14 14 14 14 14 14 14 14 14 14 14 14 13 13 14
14 14 14 14 14 14 14 14 15 15 15 15 15 15 15 15 15 15 15 15 15 15 15 15 15 15 14 14 14 14 14 14 14 14 14 14 14 14 14 13 13 13 13
13 14 14 14 14 14 14 14 14 14 15 15 15 15 15 15 15 15 15 15 15 14 14 14 14 14 14 14 14 14 14 14 14 14 14 14 14 14 14 13 13 13 13
13 13 13 13 13 14 14 14 14 14 14 14 14 15 14 14 14 14 14 14 14 14 14 14 14 14 14 14 14 14 14 14 14 14 14 14 14 14 13 13 13 13 13
12 12 13 13 13 13 13 13 14 14 14 14 14 14 14 14 14 14 14 14 14 14 14 14 14 14 14 14 14 14 14 14 14 14 14 14 14 13 13 13 13 13 13
12 12 12 12 12 13 13 13 13 13 13 13 13 14 14 14 14 14 14 14 14 14 14 14 14 14 14 14 14 14 14 14 14 14 14 14 13 13 13 13 13 13 13
11 11 12 12 12 12 12 13 13 13 13 13 13 13 13 13 13 13 13 13 14 14 14 14 14 14 14 14 14 14 14 14 14 14 14 14 13 13 13 13 13 13 13
11 11 11 11 12 12 12 12 12 12 12 12 13 13 13 13 13 13 13 13 13 13 13 13 13 13 13 13 13 13 13 14 14 14 13 13 13 13 13 13 13 13 13
10 11 11 11 11 11 11 11 11 11 12 12 12 12 12 12 12 12 12 12 13 13 13 13 13 13 13 13 13 13 13 13 13 13 13 13 13 13 13 13 13 13 12
10 10 10 10 10 11 11 11 11 11 11 11 11 11 11 12 12 12 12 12 12 12 12 12 13 13 13 13 12 12 13 13 13 13 13 13 13 13 13 13 13 12 12
9 10 10 10 10 10 10 10 11 11 11 11 11 11 11 11 11 11 11 12 12 12 12 12 12 12 12 12 12 12 12 12 12 13 13 12 12 13 12 12 12 12 12
9 9 9 9 9 9 9 10 10 10 10 10 10 10 10 10 11 11 11 11 11 11 11 11 11 12 12 11 11 11 11 12 12 12 12 12 12 12 12 12 12 12 12
8 8 8 8 8 9 9 9 9 9 10 10 10 10 10 10 10 10 10 11 11 11 11 11 11 11 11 11 11 11 11 11 11 12 12 12 12 12 12 12 12 12 11
8 8 8 8 8 8 8 8 9 9 9 9 9 9 10 10 10 10 10 10 10 10 10 10 10 11 10 10 10 10 10 11 11 11 11 11 11 11 11 11 11 11 11
8 8 8 8 8 8 8 8 8 8 8 8 8 9 9 9 9 9 10 10 10 10 10 10 10 10 10 10 10 10 10 10 10 10 10 10 11 11 11 11 11 11 11
7 7 7 7 7 8 8 8 8 8 8 8 8 8 8 9 9 9 9 9 9 9 9 9 9 9 9 9 9 9 9 9 9 9 9 9 10 10 10 10 10 10 10
Wind_Speed
2 3 4 8 10 11 11 11 11 12 12 12 12 13 13 13 13 12 12 11 11 10 10 11 11 12 12 12 12 12 12 12 12 11 11 11 11 12 11 12 12 11 12
2 2 4 8 10 11 11 11 11 11 11 11 11 12 12 12 12 11 11 10 10 10 9 10 11 11 11 12 12 12 12 12 11 11 11 10 10 10 11 11 10 10 11
1 1 4 8 9 10 10 10 10 10 10 10 10 11 11 11 11 11 10 10 9 9 9 9 10 11 11 11 11 11 11 10 10 10 9 7 7 9 10 9 9 9 9
3 3 4 6 7 8 9 9 10 10 9 9 9 9 10 10 10 10 10 9 9 9 9 9 9 10 10 10 10 10 9 9 8 8 7 6 5 7 8 8 8 8 8
4 5 4 5 6 6 7 7 8 8 8 8 9 8 8 9 9 9 9 8 8 9 9 9 8 9 9 9 10 9 9 8 8 7 5 4 4 5 6 7 7 7 7
5 6 5 5 5 5 5 5 5 6 7 7 8 8 8 8 9 9 9 8 8 9 8 8 8 8 8 8 9 8 8 7 7 5 4 3 2 4 5 5 5 5 5
4 6 6 5 5 4 4 4 4 4 4 6 7 7 7 7 8 9 9 8 8 9 8 8 8 8 7 8 9 8 7 7 6 4 3 2 1 3 4 4 4 4 4
4 5 6 5 5 4 3 3 3 3 3 4 5 6 6 7 7 9 9 9 9 9 8 8 8 8 8 8 8 8 7 6 5 4 3 3 3 3 3 4 4 3 3
6 6 6 6 4 3 3 2 1 1 1 2 3 4 5 5 6 7 9 9 9 9 9 9 8 8 7 8 8 7 7 7 6 4 4 4 4 4 4 4 4 3 3
6 6 6 6 6 5 3 2 1 1 1 1 2 3 4 5 6 7 8 9 9 9 9 9 9 8 8 7 8 7 7 7 5 4 4 5 6 6 5 5 5 4 3
7 6 6 6 6 5 4 3 2 2 2 2 2 3 3 4 6 7 8 9 9 10 10 10 10 9 8 7 7 7 7 6 6 5 6 6 7 7 6 6 6 5 5
6 6 5 5 5 5 5 4 4 3 3 2 2 2 3 4 5 6 8 9 10 10 10 10 10 9 8 6 6 7 6 6 6 6 7 8 8 9 8 7 7 7 7
4 5 5 5 5 5 4 4 3 3 3 3 3 3 3 3 4 4 5 6 8 9 8 8 7 7 7 6 6 6 7 7 7 7 8 9 9 10 9 8 8 8 8
4 5 5 5 5 5 4 3 3 2 2 3 4 4 3 2 2 3 4 5 6 6 6 6 5 6 7 7 7 6 7 7 7 8 8 10 10 10 10 9 9 9 9
4 5 5 4 4 5 4 3 3 3 3 4 4 4 4 3 3 4 4 5 5 6 6 6 6 6 5 6 6 6 6 7 8 8 8 10 10 11 11 10 10 9 9
4 5 5 5 4 4 3 3 3 4 4 4 4 5 6 5 4 4 4 5 5 6 7 7 6 6 5 5 6 6 7 7 8 9 9 10 10 11 11 11 10 10 9
5 5 5 5 4 4 4 4 3 4 4 3 4 5 6 6 5 4 4 5 6 7 7 6 6 5 5 5 6 6 6 7 7 8 9 9 9 10 11 11 11 10 10
4 5 5 5 5 5 5 5 4 4 4 4 4 5 5 6 6 4 4 5 6 6 5 5 5 5 5 5 5 5 5 5 7 8 8 8 8 9 9 11 11 11 10
4 5 5 5 5 5 5 4 4 4 3 4 4 3 5 5 6 4 4 5 5 4 5 6 5 5 5 5 5 5 5 5 5 6 6 7 9 9 9 10 11 12 11
5 4 5 5 5 5 4 3 3 3 3 3 3 3 4 4 5 4 4 4 4 4 5 5 5 5 4 5 5 5 5 5 4 5 6 6 7 9 9 9 9 9 10
5 5 5 5 5 4 3 3 3 3 3 3 2 3 4 4 4 3 3 4 4 5 5 5 5 5 5 3 3 3 3 5 5 5 5 5 5 7 7 8 8 7 7
5 6 5 5 5 4 3 3 3 3 3 2 2 3 3 3 3 3 3 3 4 4 5 5 5 4 4 4 3 2 3 3 4 5 5 6 6 4 5 7 7 7 7
6 6 6 6 5 4 4 3 3 2 2 2 2 2 3 3 3 2 2 3 3 4 4 5 5 5 5 4 4 3 3 5 2 2 4 5 5 4 4 4 5 7 7
5 6 6 5 5 4 3 2 2 3 3 3 2 3 3 3 3 3 2 2 3 3 3 4 4 4 5 4 3 3 2 2 3 2 2 3 3 4 4 4 4 5 6
5 5 5 5 5 4 3 2 2 3 3 3 2 3 3 3 2 2 2 1 2 2 3 3 3 4 4 4 3 2 2 2 2 3 3 2 2 3 4 4 3 3 5
5 5 5 5 5 5 4 3 2 3 3 3 3 3 2 2 2 3 2 1 1 2 2 2 2 3 3 3 3 3 2 2 2 2 3 3 3 3 3 3 3 2 3
Wind_Direction
285 274 181 150 144 141 140 139 135 132 130 129 129 131 131 131 131 131 130 128 126 123 122 122 118 115 111 109 106 103 100 96 92 91 90 94 95 93 91 87 82 79 83
248 235 173 154 149 146 143 139 137 137 137 137 136 136 136 136 136 135 135 134 130 128 126 126 126 120 116 114 111 107 104 100 95 90 86 86 91 94 94 91 89 85 83
45 110 144 148 149 147 147 146 142 141 142 142 142 143 143 143 144 144 143 141 137 134 132 130 130 128 123 121 120 116 111 107 103 95 87 84 93 98 98 97 93 89 87
56 67 110 134 145 148 148 150 153 151 151 149 149 151 151 151 151 151 150 150 145 140 138 136 131 132 130 129 127 124 120 115 109 101 89 83 93 103 103 102 96 93 89
52 54 83 113 132 139 145 154 158 162 163 161 158 159 163 162 160 156 155 156 154 148 144 143 139 138 139 139 137 132 127 121 113 107 100 92 93 108 106 103 97 96 91
46 46 70 93 114 130 143 150 160 166 172 174 171 172 173 175 170 168 163 160 157 154 153 153 151 152 153 151 148 142 135 129 123 119 119 111 105 121 118 113 110 108 103
39 32 47 74 87 112 130 153 163 168 175 182 184 186 186 184 181 178 172 170 167 164 166 166 164 165 165 162 159 153 145 141 138 135 145 161 183 146 136 131 130 125 115
45 30 31 50 63 76 99 119 153 172 181 180 186 192 195 194 191 187 181 180 179 177 180 181 179 177 174 172 171 165 159 154 152 159 178 204 225 184 166 161 155 140 135
37 33 22 23 30 42 58 73 86 166 205 203 205 206 207 199 195 195 192 190 190 190 192 194 193 190 188 186 182 177 171 169 162 177 199 221 232 212 195 190 185 176 176
29 26 18 16 16 11 3 1 343 322 290 249 237 224 220 211 207 204 200 200 199 200 200 200 201 201 196 192 189 187 182 174 177 193 214 232 236 227 218 211 209 209 209
19 12 12 11 9 2 350 332 324 301 283 270 252 234 228 223 216 212 209 207 206 205 205 207 207 207 201 198 197 195 188 183 191 211 226 238 238 234 232 224 223 227 231
359 355 3 4 3 359 346 340 334 317 303 279 265 244 237 230 224 220 215 214 212 210 210 212 213 209 202 198 201 201 195 195 204 225 235 240 240 239 239 233 229 232 235
340 349 352 352 357 357 349 342 338 326 315 294 267 244 238 232 228 223 215 219 217 211 207 213 216 206 197 197 200 202 204 206 216 228 238 242 241 241 242 239 232 233 236
346 342 343 347 348 347 345 335 328 325 316 299 277 252 227 225 225 221 216 216 213 211 206 204 202 204 206 209 208 210 212 216 223 228 237 241 242 243 243 244 237 236 239
341 332 329 334 338 339 340 330 328 313 301 288 274 257 233 222 226 228 223 219 215 213 208 204 204 204 211 216 219 218 221 223 226 228 237 240 241 243 242 243 242 241 242
327 323 323 327 324 331 325 314 312 304 293 288 274 260 243 228 224 225 229 225 220 216 214 210 210 212 216 218 226 225 226 225 228 229 232 239 240 238 237 240 243 244 244
317 320 322 319 325 324 316 309 315 309 299 286 275 268 253 238 227 222 227 229 226 222 217 215 214 215 221 221 228 227 226 225 226 228 229 232 236 237 236 239 242 244 248
320 321 321 327 330 324 317 312 310 307 300 291 281 273 261 248 235 223 226 232 231 221 214 215 214 217 223 226 231 230 226 225 227 226 225 227 229 231 234 236 239 242 246
322 319 322 327 326 321 317 312 310 307 302 301 294 284 270 258 245 232 232 235 226 220 222 223 217 212 221 227 232 232 228 226 225 221 220 224 224 224 227 235 239 241 244
328 325 325 326 328 325 320 318 316 308 302 312 304 299 284 273 258 240 238 236 223 222 225 224 223 215 218 222 233 238 233 229 220 219 220 220 221 224 226 230 236 242 243
338 337 331 330 328 334 334 330 322 312 303 298 301 307 295 285 272 251 247 233 221 224 227 221 221 221 222 201 216 246 248 231 225 222 214 216 221 223 225 227 226 229 239
331 330 326 322 320 322 319 305 287 286 286 283 300 319 314 304 291 269 240 239 234 229 227 224 218 223 220 194 192 207 249 256 238 225 213 218 225 214 216 224 222 225 230
331 323 318 312 312 314 316 317 318 309 306 312 315 312 316 320 305 289 265 244 237 231 232 226 216 219 227 211 198 194 202 226 238 233 220 220 216 214 220 216 221 227 227
317 318 315 313 314 316 315 317 316 306 292 288 293 297 308 320 313 302 290 263 243 238 243 240 225 220 216 218 212 223 227 196 198 243 251 232 219 222 225 226 222 228 225
315 320 319 321 320 319 311 289 283 285 284 296 306 304 307 313 315 314 306 287 263 252 247 241 232 218 217 219 210 207 226 240 226 218 252 258 251 238 231 228 220 223 227
319 324 324 325 324 323 315 300 267 272 285 296 301 302 308 311 321 332 338 334 311 280 263 250 227 213 210 215 217 209 200 203 211 216 238 249 251 250 243 232 222 221 240
Height
1518 1519 1520 1522 1523 1524 1526 1527 1528 1530 1531 1532 1533 1533 1534 1535 1535 1536 1537 1537 1537 1538 1538 1539 1539 1540 1540 1540 1541 1541 1542 1542 1542 1543 1543 1544 1544 1544 1545 1545 1545 1545 1545
1518 1519 1520 1522 1523 1525 1526 1527 1529 1530 1531 1532 1533 1534 1535 1535 1536 1537 1537 1538 1538 1539 1539 1540 1540 1540 1541 1541 1542 1542 1543 1543 1543 1544 1544 1545 1545 1545 1545 1546 1546 1546 1546
1517 1519 1520 1522 1524 1525 1526 1528 1529 1530 1531 1532 1533 1534 1535 1536 1536 1537 1538 1538 1539 1539 1540 1540 1541 1541 1541 1542 1542 1543 1543 1544 1544 1545 1545 1546 1546 1546 1546 1546 1547 1547 1547
1518 1519 1520 1522 1524 1525 1527 1528 1529 1530 1531 1533 1533 1534 1535 1536 1537 1538 1538 1539 1539 1540 1540 1541 1541 1541 1542 1543 1543 1544 1544 1545 1545 1546 1546 1546 1546 1547 1547 1547 1547 1547 1547
1518 1519 1521 1522 1524 1525 1526 1528 1529 1530 1531 1532 1533 1534 1535 1536 1537 1538 1538 1539 1539 1540 1541 1541 1541 1542 1542 1543 1544 1544 1545 1545 1546 1546 1546 1547 1547 1547 1547 1547 1547 1547 1547
1518 1519 1521 1522 1523 1525 1526 1527 1528 1530 1531 1532 1533 1534 1535 1536 1537 1537 1538 1539 1539 1540 1541 1541 1542 1542 1543 1543 1544 1545 1545 1546 1546 1547 1547 1547 1547 1547 1547 1547 1547 1547 1547
1518 1520 1521 1522 1523 1524 1525 1527 1528 1529 1530 1531 1532 1533 1534 1535 1536 1537 1538 1538 1539 1540 1540 1541 1542 1542 1543 1543 1544 1545 1545 1546 1546 1547 1547 1547 1547 1547 1547 1547 1548 1548 1548
1518 1520 1520 1521 1522 1523 1524 1526 1527 1528 1529 1530 1531 1532 1533 1534 1535 1536 1537 1537 1538 1539 1540 1540 1541 1542 1542 1543 1544 1544 1545 1546 1546 1547 1547 1547 1547 1547 1547 1547 1547 1547 1547
1518 1519 1520 1521 1521 1522 1523 1524 1525 1526 1527 1528 1530 1531 1532 1533 1534 1534 1535 1536 1537 1538 1539 1540 1540 1541 1542 1543 1543 1544 1544 1545 1546 1546 1546 1547 1547 1547 1547 1547 1547 1547 1547
1518 1518 1519 1519 1520 1521 1522 1523 1524 1525 1526 1526 1528 1529 1530 1531 1532 1533 1534 1535 1536 1537 1538 1538 1539 1540 1541 1542 1542 1543 1544 1544 1545 1545 1546 1546 1546 1546 1546 1546 1546 1546 1546
1517 1517 1517 1518 1518 1519 1520 1521 1522 1522 1523 1524 1525 1526 1527 1528 1530 1531 1532 1533 1534 1535 1536 1537 1538 1539 1540 1540 1541 1542 1542 1543 1543 1544 1544 1545 1545 1545 1545 1545 1545 1545 1545
1515 1516 1516 1516 1516 1517 1517 1518 1519 1520 1521 1522 1523 1524 1524 1526 1527 1528 1529 1530 1532 1533 1534 1535 1536 1537 1538 1538 1539 1540 1540 1541 1542 1542 1543 1543 1544 1544 1544 1544 1544 1544 1544
1514 1514 1514 1514 1514 1515 1515 1515 1516 1517 1517 1518 1520 1520 1521 1522 1523 1525 1526 1527 1529 1530 1531 1532 1533 1534 1535 1536 1537 1538 1538 1539 1539 1540 1541 1541 1542 1542 1542 1542 1542 1542 1542
1512 1512 1512 1512 1512 1512 1512 1512 1513 1513 1514 1515 1516 1517 1518 1519 1520 1521 1522 1524 1525 1526 1528 1529 1530 1531 1532 1533 1534 1535 1536 1536 1537 1538 1538 1539 1539 1540 1540 1540 1540 1540 1540
1510 1510 1510 1509 1509 1509 1509 1509 1509 1510 1511 1511 1512 1513 1514 1515 1516 1517 1518 1520 1521 1523 1524 1525 1527 1528 1529 1530 1531 1532 1532 1533 1534 1535 1535 1536 1536 1537 1537 1537 1538 1537 1537
1508 1507 1507 1507 1506 1506 1506 1506 1506 1506 1507 1507 1508 1509 1510 1511 1512 1513 1514 1516 1517 1519 1520 1521 1523 1524 1525 1526 1527 1528 1529 1530 1530 1531 1532 1533 1533 1534 1534 1534 1534 1535 1535
1505 1505 1504 1503 1503 1503 1502 1502 1502 1502 1502 1503 1504 1504 1505 1506 1507 1509 1510 1511 1513 1514 1516 1517 1519 1520 1521 1522 1523 1524 1525 1526 1526 1527 1528 1529 1529 1530 1530 1531 1531 1531 1532
1503 1502 1501 1500 1500 1499 1499 1498 1498 1498 1498 1498 1499 1500 1501 1502 1503 1504 1505 1507 1508 1510 1511 1512 1514 1515 1516 1517 1518 1519 1520 1521 1522 1523 1524 1524 1525 1525 1526 1527 1527 1528 1528
1500 1499 1498 1497 1497 1496 1495 1495 1495 1494 1494 1494 1495 1495 1496 1497 1498 1499 1500 1502 1504 1505 1506 1507 1508 1510 1511 1512 1513 1514 1515 1516 1517 1518 1519 1519 1520 1521 1522 1523 1523 1524 1524
1498 1496 1495 1494 1493 1493 1492 1491 1491 1491 1490 1490 1491 1491 1492 1492 1494 1495 1496 1497 1499 1500 1501 1502 1503 1504 1505 1507 1509 1509 1510 1511 1512 1513 1514 1515 1515 1516 1517 1518 1518 1519 1519
1495 1494 1492 1491 1490 1489 1488 1487 1487 1486 1486 1487 1487 1487 1488 1488 1489 1490 1491 1492 1493 1494 1495 1497 1498 1498 1500 1502 1503 1504 1504 1505 1506 1507 1508 1509 1510 1511 1512 1513 1513 1513 1514
1492 1491 1489 1488 1487 1486 1485 1484 1483 1483 1482 1483 1483 1483 1484 1484 1485 1486 1486 1488 1489 1489 1490 1491 1493 1493 1494 1496 1497 1498 1498 1499 1499 1501 1502 1503 1504 1505 1506 1507 1508 1508 1508
1489 1488 1486 1485 1484 1483 1482 1481 1480 1479 1479 1479 1479 1479 1480 1480 1481 1481 1482 1483 1484 1485 1485 1486 1487 1488 1489 1490 1492 1494 1493 1492 1494 1494 1496 1497 1498 1499 1500 1501 1502 1502 1503
1487 1485 1484 1482 1481 1480 1479 1478 1476 1475 1475 1475 1475 1475 1476 1476 1477 1477 1478 1478 1479 1480 1480 1481 1482 1482 1484 1484 1486 1487 1489 1489 1490 1489 1490 1491 1492 1493 1494 1494 1495 1496 1497
1485 1483 1481 1479 1478 1477 1476 1475 1473 1472 1472 1471 1471 1471 1472 1472 1473 1473 1473 1474 1474 1474 1475 1475 1476 1477 1478 1479 1480 1481 1483 1484 1485 1485 1484 1485 1486 1487 1488 1489 1489 1490 1490
1483 1481 1479 1477 1475 1474 1473 1472 1470 1469 1469 1468 1468 1467 1468 1468 1468 1469 1469 1469 1469 1470 1470 1470 1471 1471 1472 1474 1475 1476 1477 1478 1479 1480 1480 1480 1480 1481 1483 1483 1483 1483 1484